This demonstration page uses our WeatherBlox Daily Observations layout. Learn more.

Left ArrowRight Arrow

53.62937, 11.41316

Hourly Observations for November 2, 2021

Temp ( °F °C ) Dew Point ( °F °C ) Humidity (%) Winds ( mph kmh ) Pressure ( in mb ) Visibility ( mi km ) Precip ( " mm )
12:20 am 00:20 Mostly Clear 46 8 43 6 87 87 SSE 6 9 29.53 1000 30 48 N/A
12:50 am 00:50 Mostly Clear 46 8 43 6 87 87 SSE 5 7 29.53 1000 30 48 N/A
1:20 am 01:20 Mostly Clear 46 8 43 6 87 87 SSE 5 7 29.53 1000 30 48 N/A
1:50 am 01:50 Partly Cloudy 46 8 43 6 87 87 SSE 5 7 29.53 1000 30 48 N/A
2:20 am 02:20 Mostly Cloudy 46 8 43 6 87 87 SSE 3 6 29.53 1000 30 48 N/A
2:50 am 02:50 Mostly Cloudy 46 8 43 6 87 87 SSE 5 7 29.53 1000 30 48 N/A
3:20 am 03:20 Cloudy 46 8 43 6 87 87 SSE 3 6 29.53 1000 30 48 N/A
3:50 am 03:50 Mostly Cloudy 45 7 43 6 93 93 VRB 2 4 29.53 1000 30 48 N/A
4:20 am 04:20 Cloudy 46 8 43 6 87 87 SSE 5 7 29.53 1000 30 48 N/A
4:50 am 04:50 Mostly Clear 45 7 43 6 93 93 SSE 5 7 29.53 1000 30 48 N/A
5:20 am 05:20 Mostly Clear 45 7 43 6 93 93 SSE 3 6 29.53 1000 30 48 N/A
5:50 am 05:50 Mostly Clear 43 6 43 6 100 100 VRB 2 4 29.53 1000 30 48 N/A
6:20 am 06:20 Mostly Clear 43 6 41 5 93 93 S 2 4 29.50 999 7 11 N/A
6:50 am 06:50 Mostly Clear 41 5 41 5 100 100 Calm 29.50 999 7 11 N/A
7:20 am 07:20 Partly Cloudy with Areas of Fog 41 5 41 5 100 100 VRB 1 2 29.50 999 30 48 N/A
7:50 am 07:50 Partly Cloudy with Patchy Fog 41 5 39 4 93 93 VRB 2 4 29.53 1000 30 48 N/A
8:20 am 08:20 Mostly Sunny 41 5 41 5 100 100 VRB 2 4 29.53 1000 7 11 N/A
8:50 am 08:50 Mostly Sunny 43 6 43 6 100 100 VRB 1 2 29.53 1000 7 11 N/A
9:20 am 09:20 Mostly Sunny 45 7 43 6 93 93 VRB 3 6 29.53 1000 7 11 N/A
9:50 am 09:50 Mostly Sunny 46 8 43 6 87 87 SW 3 6 29.53 1000 7 11 N/A
10:20 am 10:20 Mostly Sunny 46 8 45 7 93 93 VRB 2 4 29.53 1000 7 11 N/A
10:50 am 10:50 Mostly Sunny 48 9 45 7 87 87 VRB 2 4 29.53 1000 7 11 N/A
11:20 am 11:20 Mostly Sunny 50 10 45 7 82 82 VRB 2 4 29.53 1000 7 11 N/A
11:50 am 11:50 Mostly Sunny 52 11 45 7 77 77 SW 3 6 29.53 1000 7 11 N/A
12:20 pm 12:20 Mostly Sunny 52 11 45 7 77 77 VRB 2 4 29.50 999 7 11 N/A
12:50 pm 12:50 Mostly Sunny 54 12 45 7 72 72 VRB 3 6 29.50 999 30 48 N/A
1:20 pm 13:20 Mostly Sunny 54 12 45 7 72 72 WSW 3 6 29.50 999 30 48 N/A
1:50 pm 13:50 Mostly Sunny 54 12 45 7 72 72 SW 3 6 29.50 999 30 48 N/A
2:20 pm 14:20 Mostly Sunny 54 12 43 6 67 67 WSW 3 6 29.50 999 30 48 N/A
2:50 pm 14:50 Mostly Sunny 54 12 43 6 67 67 VRB 3 6 29.50 999 30 48 N/A
3:20 pm 15:20 Mostly Sunny 52 11 45 7 77 77 VRB 2 4 29.50 999 30 48 N/A
3:50 pm 15:50 Mostly Sunny 52 11 45 7 77 77 VRB 2 4 29.50 999 30 48 N/A
4:20 pm 16:20 Mostly Cloudy 52 11 45 7 77 77 VRB 2 4 29.50 999 30 48 N/A
4:50 pm 16:50 Mostly Clear 52 11 45 7 77 77 VRB 2 4 29.50 999 30 48 N/A
5:20 pm 17:20 Mostly Cloudy 50 10 45 7 82 82 S 3 6 29.50 999 30 48 N/A
5:50 pm 17:50 Partly Cloudy 48 9 45 7 87 87 S 2 4 29.53 1000 30 48 N/A
6:20 pm 18:20 Mostly Clear 48 9 45 7 87 87 Calm 29.53 1000 30 48 N/A
6:50 pm 18:50 Mostly Clear 48 9 45 7 87 87 S 3 6 29.53 1000 7 11 N/A
7:20 pm 19:20 Mostly Clear 48 9 45 7 87 87 VRB 2 4 29.53 1000 30 48 N/A
7:50 pm 19:50 Mostly Clear 48 9 45 7 87 87 VRB 2 4 29.53 1000 30 48 N/A
8:20 pm 20:20 Mostly Clear 48 9 45 7 87 87 VRB 2 4 29.53 1000 30 48 N/A
8:50 pm 20:50 Cloudy 48 9 45 7 87 87 S 3 6 29.56 1001 30 48 N/A
9:20 pm 21:20 Mostly Cloudy 48 9 45 7 87 87 VRB 2 4 29.56 1001 30 48 N/A
9:50 pm 21:50 Cloudy 48 9 43 6 82 82 VRB 2 4 29.56 1001 30 48 N/A
10:20 pm 22:20 Cloudy 46 8 45 7 93 93 VRB 1 2 29.56 1001 30 48 N/A
10:50 pm 22:50 Cloudy 46 8 43 6 87 87 VRB 1 2 29.56 1001 30 48 N/A
11:20 pm 23:20 Mostly Cloudy 46 8 45 7 93 93 VRB 2 4 29.56 1001 30 48 N/A
11:50 pm 23:50 Mostly Cloudy 46 8 45 7 93 93 VRB 1 2 29.56 1001 30 48 N/A

Powered by AerisWeather